Location: *
(51.2167°N, 10.0667°E)
Time: 19:37:19
(UTC+00:00)

Cosmos 1980 Rocket - Pass Details

Date: 12 December 2019
Orbit: 829 x 850 km, 71.0° (Epoch: 22 January)

Event Time Altitude Azimuth Distance (km) Brightness Sun altitude
Rises 16:48:44 0° 299° (WNW) 3,423 6.0 -14.1°
Reaches altitude 10° 16:53:44 10° 337° (NNW) 2,488 4.7 -14.9°
Maximum altitude 16:54:57 11° 350° (N) 2,443 4.5 -15.0°
Drops below altitude 10° 16:56:11 10° 2° (N) 2,488 4.4 -15.2°
Enters shadow 16:58:07 - 20° (NNE) 2,731 4.5 -15.5°
